West Bend, WI

2:35 PM CST on January 24, 2017 (GMT -0600)
West Bend Municipal

Weather History for KETB - February, 2014

Change the Weather History Date:

Saturday, February 22, 2014

  Actual Average Record
Temperature  
Mean Temperature 22 °F -  
Max Temperature 28 °F 35 °F 56 °F (1930)
Min Temperature 15 °F 19 °F -11 °F (1936)
Degree Days  
Heating Degree Days 42    
Moisture  
Dew Point 8 °F    
Average Humidity 57    
Maximum Humidity 68    
Minimum Humidity 40    
Precipitation  
Precipitation 0.00 in - - ()
Sea Level Pressure  
Sea Level Pressure 29.86 in    
Wind  
Wind Speed 15 mph (WSW)    
Max Wind Speed 22 mph    
Max Gust Speed 32 mph    
Visibility 10 miles    
Events      
Averages and records for this station are not official NWS values.
T = Trace of Precipitation, MM = Missing Value Source: NWS Daily Summary

Daily Weather History Graph

Daily Weather History Graph

Search for Another Location

Airport or City:

Trip Planner

Search our weather history database for the weather conditions in past years. The results will help you decide how hot, cold, wet, or windy it might be!

Date:

Astronomy

Feb. 22, 2014 Rise Set
Actual Time 6:40 AM CST 5:32 PM CST
Civil Twilight 6:11 AM CST 6:01 PM CST
Nautical Twilight 5:38 AM CST 6:34 PM CST
Astronomical Twilight 5:05 AM CST 7:07 PM CST
Moon 12:39 AM CST (2/22) 10:38 AM CST (2/22)
Length of Visible Light 11h 50m
Length of Day
10h 52m
Waning Gibbous, 50% of the Moon is Illuminated
Feb 22
Waning Gibbous
Mar 1
New
Mar 8
First Quarter
Mar 16
Full
Mar 23
Last Quarter

Hourly Weather History & Observations

Time (CST) Temp. Windchill Dew Point Humidity Pressure Visibility Wind Dir Wind Speed Gust Speed Precip Events Conditions
12:15 AM 19.4 °F 5.5 °F 8.6 °F 63% 29.69 in 10.0 mi WSW 15.0 mph 24.2 mph N/A   Clear
12:35 AM 19.4 °F 4.5 °F 8.6 °F 63% 29.68 in 10.0 mi WSW 17.3 mph 25.3 mph N/A   Clear
12:55 AM 19.4 °F 5.0 °F 8.6 °F 63% 29.69 in 10.0 mi WSW 16.1 mph 27.6 mph N/A   Clear
1:15 AM 19.4 °F 4.5 °F 8.6 °F 63% 29.69 in 10.0 mi West 17.3 mph 23.0 mph N/A   Clear
1:35 AM 19.4 °F 4.5 °F 8.6 °F 63% 29.70 in 10.0 mi WSW 17.3 mph 24.2 mph N/A   Clear
1:55 AM 19.4 °F 5.5 °F 8.6 °F 63% 29.70 in 10.0 mi WSW 15.0 mph 25.3 mph N/A   Clear
2:15 AM 17.6 °F 3.2 °F 8.6 °F 68% 29.71 in 10.0 mi WSW 15.0 mph 21.9 mph N/A   Clear
2:35 AM 17.6 °F 3.2 °F 8.6 °F 68% 29.71 in 10.0 mi WSW 15.0 mph 23.0 mph N/A   Clear
2:55 AM 17.6 °F 3.2 °F 8.6 °F 68% 29.71 in 10.0 mi WSW 15.0 mph 26.5 mph N/A   Clear
3:15 AM 17.6 °F 0.9 °F 8.6 °F 68% 29.71 in 10.0 mi West 20.7 mph 26.5 mph N/A   Clear
3:35 AM 17.6 °F 3.7 °F 8.6 °F 68% 29.71 in 10.0 mi WSW 13.8 mph 29.9 mph N/A   Clear
3:55 AM 17.6 °F 1.3 °F 8.6 °F 68% 29.73 in 10.0 mi West 19.6 mph 32.2 mph N/A   Clear
4:15 AM 17.6 °F 2.2 °F 8.6 °F 68% 29.73 in 10.0 mi West 17.3 mph 25.3 mph N/A   Clear
4:35 AM 17.6 °F 3.2 °F 6.8 °F 63% 29.75 in 10.0 mi West 15.0 mph 26.5 mph N/A   Clear
4:55 AM 17.6 °F 2.2 °F 6.8 °F 63% 29.76 in 10.0 mi West 17.3 mph 24.2 mph N/A   Clear
5:15 AM 17.6 °F 2.7 °F 6.8 °F 63% 29.77 in 10.0 mi West 16.1 mph 23.0 mph N/A   Clear
5:35 AM 17.6 °F 3.7 °F 6.8 °F 63% 29.78 in 10.0 mi West 13.8 mph 19.6 mph N/A   Clear
5:55 AM 17.6 °F 3.7 °F 6.8 °F 63% 29.78 in 10.0 mi West 13.8 mph 23.0 mph N/A   Clear
6:15 AM 17.6 °F 2.2 °F 6.8 °F 63% 29.79 in 10.0 mi West 17.3 mph 21.9 mph N/A   Clear
6:35 AM 17.6 °F 1.7 °F 6.8 °F 63% 29.80 in 10.0 mi West 18.4 mph 24.2 mph N/A   Clear
6:55 AM 17.6 °F 3.2 °F 6.8 °F 63% 29.81 in 10.0 mi West 15.0 mph 23.0 mph N/A   Clear
7:15 AM 17.6 °F 1.7 °F 6.8 °F 63% 29.83 in 10.0 mi West 18.4 mph 25.3 mph N/A   Clear
7:35 AM 17.6 °F 2.2 °F 6.8 °F 63% 29.84 in 10.0 mi West 17.3 mph 23.0 mph N/A   Clear
7:55 AM 17.6 °F 2.7 °F 5.0 °F 58% 29.84 in 10.0 mi West 16.1 mph 24.2 mph N/A   Clear
8:15 AM 19.4 °F 6.0 °F 6.8 °F 58% 29.85 in 10.0 mi WSW 13.8 mph 19.6 mph N/A   Clear
8:35 AM 19.4 °F 6.0 °F 6.8 °F 58% 29.86 in 10.0 mi WSW 13.8 mph 23.0 mph N/A   Clear
8:55 AM 19.4 °F 6.6 °F 6.8 °F 58% 29.86 in 10.0 mi West 12.7 mph 20.7 mph N/A   Clear
9:20 AM 21.2 °F 8.3 °F 6.8 °F 54% 29.88 in 10.0 mi WSW 13.8 mph 24.2 mph N/A   Clear
9:35 AM 21.2 °F 7.8 °F 6.8 °F 54% 29.88 in 10.0 mi West 15.0 mph 24.2 mph N/A   Clear
9:55 AM 21.2 °F 6.0 °F 8.6 °F 58% 29.89 in 10.0 mi West 19.6 mph 26.5 mph N/A   Clear
10:15 AM 23.0 °F 9.6 °F 8.6 °F 54% 29.88 in 10.0 mi West 16.1 mph - N/A   Clear
10:35 AM 23.0 °F 9.2 °F 8.6 °F 54% 29.89 in 10.0 mi West 17.3 mph 23.0 mph N/A   Clear
10:55 AM 23.0 °F 9.2 °F 8.6 °F 54% 29.89 in 10.0 mi WSW 17.3 mph 25.3 mph N/A   Clear
11:15 AM 23.0 °F 9.6 °F 8.6 °F 54% 29.89 in 10.0 mi West 16.1 mph 20.7 mph N/A   Clear
11:35 AM 24.8 °F 13.4 °F 8.6 °F 50% 29.89 in 10.0 mi WSW 12.7 mph 25.3 mph N/A   Clear
11:55 AM 24.8 °F 12.4 °F 8.6 °F 50% 29.89 in 10.0 mi West 15.0 mph 25.3 mph N/A   Clear
12:15 PM 24.8 °F 11.5 °F 8.6 °F 50% 29.88 in 10.0 mi WSW 17.3 mph 25.3 mph N/A   Clear
12:35 PM 26.6 °F 14.3 °F 10.4 °F 51% 29.89 in 10.0 mi WSW 16.1 mph 26.5 mph N/A   Clear
12:55 PM 26.6 °F 14.3 °F 10.4 °F 51% 29.89 in 10.0 mi WSW 16.1 mph 23.0 mph N/A   Clear
1:15 PM 26.6 °F 13.4 °F 10.4 °F 51% 29.88 in 10.0 mi WSW 18.4 mph 25.3 mph N/A   Clear
1:35 PM 26.6 °F 13.8 °F 8.6 °F 47% 29.88 in 10.0 mi WSW 17.3 mph 28.8 mph N/A   Clear
1:55 PM 26.6 °F 13.8 °F 10.4 °F 51% 29.88 in 10.0 mi WSW 17.3 mph 29.9 mph N/A   Clear
2:15 PM 26.6 °F 13.4 °F 8.6 °F 47% 29.88 in 10.0 mi West 18.4 mph 25.3 mph N/A   Clear
2:35 PM 28.4 °F 16.2 °F 10.4 °F 47% 29.88 in 10.0 mi West 17.3 mph 27.6 mph N/A   Clear
2:55 PM 28.4 °F 16.2 °F 8.6 °F 43% 29.88 in 10.0 mi WSW 17.3 mph 23.0 mph N/A   Clear
3:15 PM 28.4 °F 14.7 °F 8.6 °F 43% 29.88 in 10.0 mi WSW 21.9 mph 27.6 mph N/A   Clear
3:35 PM 28.4 °F 17.0 °F 8.6 °F 43% 29.88 in 10.0 mi WSW 15.0 mph 25.3 mph N/A   Clear
3:55 PM 28.4 °F 15.8 °F 8.6 °F 43% 29.88 in 10.0 mi WSW 18.4 mph 23.0 mph N/A   Clear
4:15 PM 28.4 °F 16.6 °F 6.8 °F 40% 29.88 in 10.0 mi WSW 16.1 mph 24.2 mph N/A   Clear
4:35 PM 28.4 °F 18.0 °F 8.6 °F 43% 29.89 in 10.0 mi WSW 12.7 mph 20.7 mph N/A   Clear
4:55 PM 26.6 °F 13.4 °F 8.6 °F 47% 29.89 in 10.0 mi WSW 18.4 mph 23.0 mph N/A   Clear
5:15 PM 26.6 °F 14.7 °F 8.6 °F 47% 29.90 in 10.0 mi WSW 15.0 mph 21.9 mph N/A   Clear
5:35 PM 26.6 °F 17.5 °F 8.6 °F 47% 29.90 in 10.0 mi WSW 9.2 mph - N/A   Clear
5:55 PM 24.8 °F 16.9 °F 10.4 °F 54% 29.91 in 10.0 mi WSW 6.9 mph - N/A   Clear
6:15 PM 23.0 °F 17.0 °F 10.4 °F 59% 29.92 in 10.0 mi WSW 4.6 mph - N/A   Clear
6:35 PM 23.0 °F 14.7 °F 10.4 °F 59% 29.94 in 10.0 mi WSW 6.9 mph - N/A   Clear
6:55 PM 23.0 °F 12.4 °F 10.4 °F 59% 29.95 in 10.0 mi West 10.4 mph - N/A   Clear
7:15 PM 23.0 °F 13.1 °F 10.4 °F 59% 29.95 in 10.0 mi West 9.2 mph - N/A   Clear
7:35 PM 23.0 °F 12.4 °F 8.6 °F 54% 29.95 in 10.0 mi West 10.4 mph - N/A   Clear
7:55 PM 23.0 °F 11.7 °F 8.6 °F 54% 29.95 in 10.0 mi West 11.5 mph 17.3 mph N/A   Clear
8:15 PM 21.2 °F 9.5 °F 8.6 °F 58% 29.96 in 10.0 mi West 11.5 mph - N/A   Clear
8:35 PM 21.2 °F 8.9 °F 8.6 °F 58% 29.96 in 10.0 mi West 12.7 mph - N/A   Clear
8:55 PM 21.2 °F 8.9 °F 8.6 °F 58% 29.97 in 10.0 mi West 12.7 mph 18.4 mph N/A   Clear
9:15 PM 21.2 °F 8.9 °F 6.8 °F 54% 29.98 in 10.0 mi West 12.7 mph - N/A   Clear
9:35 PM 19.4 °F 7.2 °F 6.8 °F 58% 29.98 in 10.0 mi West 11.5 mph 18.4 mph N/A   Clear
9:55 PM 19.4 °F 5.5 °F 6.8 °F 58% 29.99 in 10.0 mi West 15.0 mph 23.0 mph N/A   Clear
10:15 PM 19.4 °F 6.6 °F 6.8 °F 58% 29.99 in 10.0 mi West 12.7 mph - N/A   Clear
10:35 PM 17.6 °F 3.7 °F 6.8 °F 63% 30.00 in 10.0 mi West 13.8 mph 20.7 mph N/A   Clear
10:55 PM 17.6 °F 3.7 °F 5.0 °F 58% 29.99 in 10.0 mi West 13.8 mph 19.6 mph N/A   Clear
11:15 PM 17.6 °F 2.7 °F 5.0 °F 58% 29.99 in 10.0 mi West 16.1 mph 20.7 mph N/A   Clear
11:35 PM 17.6 °F 3.2 °F 5.0 °F 58% 30.00 in 10.0 mi West 15.0 mph 20.7 mph N/A   Clear
11:55 PM 15.8 °F 2.1 °F 5.0 °F 62% 30.01 in 10.0 mi West 12.7 mph 20.7 mph N/A   Clear